QPF
0.00 0.00 0.00 0.00 0.01 0.01 0.01 0.01 0.02 0.03 0.03 0.04 0.05 0.06 0.05 0.04 0.04 0.03 0.04 0.04 0.03 0.05 0.08 0.07 0.11 0.10 0.10 0.10 0.09 0.11 0.10 0.11 0.11 0.11 0.12 0.11 0.09 0.08 0.10 0.13 0.12 0.09 0.07
0.00 0.00 0.00 0.00 0.00 0.01 0.01 0.01 0.01 0.01 0.02 0.03 0.04 0.04 0.04 0.03 0.04 0.03 0.06 0.06 0.03 0.04 0.06 0.09 0.09 0.10 0.11 0.10 0.11 0.14 0.13 0.12 0.14 0.16 0.17 0.16 0.15 0.11 0.08 0.09 0.08 0.07 0.05
0.00 0.00 0.00 0.00 0.00 0.00 0.00 0.00 0.01 0.01 0.02 0.03 0.03 0.03 0.03 0.03 0.04 0.04 0.05 0.04 0.03 0.03 0.03 0.06 0.08 0.10 0.10 0.10 0.09 0.10 0.13 0.15 0.15 0.16 0.19 0.18 0.17 0.16 0.08 0.05 0.04 0.05 0.05
0.00 0.00 0.00 0.00 0.00 0.00 0.00 0.00 0.00 0.01 0.02 0.02 0.03 0.03 0.03 0.03 0.03 0.04 0.04 0.03 0.03 0.03 0.02 0.03 0.07 0.09 0.09 0.11 0.07 0.09 0.12 0.13 0.14 0.17 0.18 0.19 0.17 0.16 0.11 0.07 0.05 0.04 0.04
0.00 0.00 0.00 0.01 0.00 0.00 0.00 0.00 0.00 0.01 0.02 0.02 0.02 0.03 0.02 0.03 0.03 0.03 0.04 0.05 0.06 0.04 0.02 0.04 0.07 0.07 0.08 0.09 0.09 0.11 0.11 0.11 0.11 0.12 0.14 0.15 0.15 0.13 0.13 0.09 0.09 0.07 0.05
0.00 0.00 0.00 0.00 0.00 0.00 0.00 0.00 0.00 0.01 0.01 0.01 0.02 0.03 0.04 0.04 0.04 0.05 0.07 0.07 0.09 0.07 0.05 0.05 0.07 0.08 0.07 0.08 0.09 0.09 0.09 0.10 0.11 0.11 0.12 0.13 0.13 0.12 0.13 0.11 0.09 0.09 0.07
0.00 0.00 0.00 0.00 0.00 0.00 0.00 0.00 0.00 0.01 0.01 0.02 0.02 0.02 0.03 0.04 0.05 0.05 0.07 0.08 0.09 0.09 0.08 0.08 0.09 0.08 0.08 0.07 0.09 0.11 0.10 0.09 0.10 0.10 0.09 0.10 0.11 0.13 0.13 0.11 0.09 0.10 0.08
0.00 0.00 0.00 0.00 0.00 0.00 0.00 0.00 0.00 0.01 0.01 0.01 0.02 0.02 0.03 0.04 0.04 0.05 0.06 0.07 0.06 0.05 0.06 0.07 0.06 0.06 0.06 0.05 0.08 0.08 0.09 0.09 0.10 0.09 0.11 0.11 0.11 0.11 0.12 0.11 0.12 0.10 0.09
0.00 0.00 0.00 0.00 0.00 0.00 0.00 0.00 0.01 0.01 0.01 0.01 0.02 0.03 0.03 0.04 0.04 0.05 0.06 0.05 0.04 0.03 0.03 0.03 0.04 0.05 0.05 0.06 0.06 0.06 0.06 0.07 0.07 0.07 0.09 0.09 0.09 0.10 0.11 0.13 0.14 0.12 0.10
0.00 0.00 0.00 0.00 0.00 0.00 0.00 0.00 0.00 0.01 0.00 0.01 0.01 0.02 0.03 0.04 0.04 0.04 0.04 0.04 0.02 0.01 0.02 0.02 0.03 0.04 0.04 0.05 0.06 0.07 0.07 0.07 0.07 0.07 0.07 0.08 0.08 0.10 0.10 0.11 0.12 0.13 0.12
0.00 0.00 0.00 0.00 0.00 0.00 0.00 0.00 0.00 0.00 0.00 0.01 0.01 0.02 0.02 0.03 0.05 0.05 0.03 0.02 0.02 0.01 0.01 0.02 0.02 0.02 0.02 0.03 0.04 0.05 0.07 0.07 0.07 0.08 0.08 0.08 0.09 0.09 0.10 0.10 0.11 0.12 0.12
0.00 0.00 0.00 0.00 0.00 0.00 0.00 0.00 0.00 0.00 0.00 0.00 0.01 0.01 0.01 0.01 0.03 0.04 0.03 0.01 0.01 0.01 0.01 0.01 0.01 0.01 0.01 0.03 0.05 0.07 0.07 0.07 0.08 0.10 0.11 0.09 0.08 0.09 0.08 0.08 0.09 0.09 0.09
0.00 0.00 0.00 0.00 0.00 0.00 0.00 0.00 0.00 0.00 0.00 0.00 0.01 0.01 0.01 0.00 0.01 0.01 0.01 0.01 0.01 0.00 0.00 0.00 0.01 0.01 0.01 0.01 0.02 0.04 0.05 0.06 0.06 0.06 0.08 0.07 0.06 0.06 0.07 0.07 0.07 0.06 0.05
0.00 0.00 0.00 0.00 0.00 0.00 0.00 0.00 0.00 0.00 0.00 0.00 0.00 0.01 0.00 0.00 0.00 0.00 0.00 0.01 0.01 0.00 0.00 0.00 0.01 0.01 0.01 0.01 0.02 0.03 0.03 0.04 0.05 0.05 0.05 0.05 0.05 0.05 0.05 0.04 0.04 0.05 0.05
0.00 0.00 0.00 0.00 0.00 0.01 0.01 0.00 0.00 0.00 0.00 0.00 0.00 0.00 0.00 0.00 0.00 0.00 0.00 0.00 0.01 0.00 0.01 0.01 0.01 0.01 0.01 0.01 0.02 0.02 0.03 0.04 0.05 0.05 0.05 0.05 0.05 0.04 0.04 0.03 0.03 0.04 0.06
0.00 0.00 0.00 0.00 0.00 0.01 0.01 0.01 0.01 0.01 0.01 0.00 0.00 0.01 0.01 0.00 0.00 0.00 0.01 0.00 0.00 0.01 0.01 0.01 0.01 0.01 0.00 0.00 0.00 0.01 0.02 0.03 0.04 0.04 0.04 0.03 0.04 0.02 0.02 0.02 0.01 0.02 0.03
0.00 0.00 0.00 0.00 0.00 0.00 0.01 0.01 0.01 0.02 0.02 0.01 0.01 0.01 0.01 0.01 0.01 0.01 0.00 0.00 0.01 0.01 0.01 0.01 0.01 0.01 0.01 0.01 0.01 0.01 0.01 0.02 0.03 0.03 0.03 0.03 0.03 0.02 0.02 0.03 0.03 0.02 0.02
0.00 0.00 0.00 0.00 0.00 0.00 0.00 0.00 0.02 0.02 0.03 0.03 0.02 0.01 0.02 0.02 0.01 0.01 0.01 0.01 0.01 0.02 0.02 0.02 0.02 0.02 0.02 0.02 0.01 0.01 0.01 0.01 0.01 0.02 0.03 0.04 0.04 0.03 0.05 0.04 0.03 0.02 0.02
0.00 0.00 0.00 0.00 0.00 0.00 0.00 0.00 0.01 0.02 0.03 0.03 0.03 0.02 0.02 0.02 0.01 0.01 0.01 0.01 0.01 0.01 0.01 0.02 0.02 0.02 0.01 0.03 0.02 0.01 0.01 0.02 0.02 0.01 0.02 0.04 0.03 0.04 0.04 0.04 0.04 0.03 0.02
0.00 0.00 0.00 0.00 0.00 0.00 0.01 0.01 0.01 0.02 0.02 0.02 0.03 0.03 0.03 0.03 0.02 0.01 0.00 0.01 0.01 0.01 0.01 0.01 0.01 0.01 0.02 0.02 0.03 0.01 0.02 0.03 0.03 0.03 0.04 0.04 0.03 0.03 0.03 0.04 0.04 0.02 0.02
0.00 0.00 0.00 0.00 0.00 0.01 0.01 0.01 0.01 0.01 0.01 0.02 0.03 0.03 0.04 0.03 0.02 0.01 0.01 0.01 0.01 0.01 0.01 0.01 0.01 0.02 0.02 0.02 0.02 0.01 0.02 0.02 0.04 0.04 0.03 0.02 0.02 0.02 0.03 0.03 0.04 0.03 0.03
0.01 0.01 0.00 0.00 0.00 0.01 0.01 0.01 0.02 0.01 0.02 0.03 0.04 0.04 0.03 0.02 0.02 0.02 0.02 0.02 0.02 0.01 0.01 0.01 0.02 0.02 0.02 0.02 0.02 0.01 0.01 0.01 0.02 0.03 0.02 0.01 0.02 0.02 0.02 0.01 0.01 0.01 0.02
0.01 0.00 0.00 0.00 0.00 0.01 0.01 0.02 0.02 0.03 0.04 0.04 0.04 0.04 0.04 0.04 0.03 0.02 0.02 0.02 0.02 0.02 0.01 0.02 0.02 0.02 0.02 0.02 0.01 0.00 0.00 0.00 0.01 0.02 0.01 0.01 0.01 0.01 0.01 0.00 0.01 0.01 0.01
0.01 0.00 0.00 0.00 0.01 0.01 0.02 0.03 0.04 0.04 0.04 0.04 0.04 0.05 0.06 0.05 0.04 0.04 0.04 0.04 0.03 0.03 0.03 0.02 0.02 0.02 0.02 0.02 0.01 0.01 0.00 0.00 0.01 0.01 0.01 0.00 0.00 0.00 0.00 0.00 0.00 0.01 0.01
0.02 0.01 0.00 0.01 0.01 0.02 0.04 0.04 0.04 0.05 0.05 0.05 0.04 0.04 0.05 0.05 0.06 0.05 0.05 0.05 0.05 0.04 0.03 0.03 0.02 0.02 0.02 0.02 0.02 0.01 0.01 0.01 0.01 0.01 0.01 0.01 0.00 0.00 0.00 0.00 0.00 0.00 0.01
0.02 0.02 0.01 0.00 0.01 0.03 0.04 0.04 0.04 0.04 0.04 0.04 0.04 0.04 0.05 0.05 0.05 0.05 0.06 0.06 0.05 0.04 0.03 0.02 0.01 0.01 0.01 0.01 0.01 0.01 0.01 0.01 0.01 0.01 0.01 0.02 0.02 0.01 0.01 0.01 0.01 0.01 0.01
MSLP
1014.02 1014.46 1014.82 1015.05 1015.14 1015.10 1014.99 1014.85 1014.72 1014.64 1014.63 1014.67 1014.75 1014.84 1014.91 1014.95 1014.94 1014.91 1014.87 1014.83 1014.82 1014.85 1014.90 1014.99 1015.09 1015.18 1015.25 1015.28 1015.27 1015.22 1015.12 1015.01 1014.90 1014.81 1014.76 1014.78 1014.88 1015.06 1015.31 1015.60 1015.89 1016.12 1016.26
1014.18 1014.72 1015.18 1015.50 1015.65 1015.64 1015.52 1015.35 1015.19 1015.08 1015.06 1015.11 1015.21 1015.33 1015.42 1015.46 1015.45 1015.38 1015.29 1015.19 1015.13 1015.12 1015.17 1015.27 1015.41 1015.54 1015.65 1015.71 1015.70 1015.64 1015.53 1015.39 1015.26 1015.18 1015.18 1015.27 1015.47 1015.76 1016.13 1016.52 1016.87 1017.14 1017.25
1014.44 1015.07 1015.62 1016.02 1016.22 1016.23 1016.10 1015.90 1015.70 1015.56 1015.52 1015.58 1015.70 1015.85 1015.98 1016.04 1016.02 1015.94 1015.80 1015.65 1015.54 1015.49 1015.51 1015.60 1015.74 1015.90 1016.02 1016.09 1016.07 1015.99 1015.84 1015.67 1015.53 1015.46 1015.49 1015.65 1015.94 1016.35 1016.84 1017.35 1017.79 1018.12 1018.26
1014.75 1015.44 1016.07 1016.52 1016.76 1016.78 1016.64 1016.40 1016.17 1016.01 1015.96 1016.03 1016.18 1016.38 1016.55 1016.65 1016.65 1016.55 1016.39 1016.20 1016.04 1015.94 1015.92 1015.99 1016.11 1016.25 1016.37 1016.42 1016.38 1016.26 1016.08 1015.88 1015.72 1015.64 1015.70 1015.91 1016.29 1016.80 1017.39 1018.01 1018.55 1018.96 1019.17
1015.03 1015.77 1016.44 1016.94 1017.20 1017.23 1017.07 1016.80 1016.54 1016.36 1016.32 1016.41 1016.61 1016.86 1017.09 1017.24 1017.27 1017.19 1017.02 1016.81 1016.60 1016.45 1016.39 1016.41 1016.50 1016.61 1016.70 1016.72 1016.65 1016.50 1016.29 1016.05 1015.87 1015.78 1015.85 1016.09 1016.51 1017.09 1017.76 1018.46 1019.10 1019.60 1019.90
1015.21 1015.97 1016.68 1017.20 1017.48 1017.51 1017.34 1017.06 1016.79 1016.61 1016.57 1016.69 1016.94 1017.25 1017.54 1017.76 1017.84 1017.80 1017.64 1017.41 1017.18 1016.99 1016.88 1016.86 1016.90 1016.97 1017.02 1017.02 1016.92 1016.74 1016.50 1016.25 1016.04 1015.94 1016.00 1016.24 1016.67 1017.26 1017.97 1018.71 1019.41 1019.98 1020.38
1015.26 1016.03 1016.74 1017.28 1017.57 1017.61 1017.45 1017.17 1016.91 1016.74 1016.73 1016.88 1017.18 1017.55 1017.90 1018.18 1018.32 1018.32 1018.18 1017.96 1017.72 1017.50 1017.36 1017.30 1017.30 1017.34 1017.36 1017.34 1017.23 1017.04 1016.79 1016.52 1016.30 1016.18 1016.21 1016.42 1016.82 1017.39 1018.07 1018.80 1019.51 1020.14 1020.61
1015.15 1015.92 1016.64 1017.19 1017.50 1017.55 1017.42 1017.17 1016.93 1016.79 1016.82 1017.01 1017.35 1017.76 1018.17 1018.50 1018.68 1018.72 1018.62 1018.42 1018.18 1017.95 1017.79 1017.71 1017.69 1017.70 1017.72 1017.68 1017.58 1017.40 1017.16 1016.90 1016.67 1016.54 1016.53 1016.70 1017.03 1017.52 1018.14 1018.81 1019.49 1020.11 1020.63
1014.93 1015.68 1016.39 1016.95 1017.29 1017.38 1017.30 1017.10 1016.92 1016.83 1016.89 1017.11 1017.48 1017.92 1018.35 1018.71 1018.93 1019.00 1018.92 1018.75 1018.53 1018.32 1018.16 1018.07 1018.05 1018.07 1018.08 1018.07 1017.99 1017.83 1017.62 1017.38 1017.17 1017.02 1016.98 1017.09 1017.34 1017.73 1018.24 1018.81 1019.41 1019.99 1020.51
1014.62 1015.35 1016.05 1016.62 1016.99 1017.14 1017.12 1017.01 1016.90 1016.87 1016.98 1017.24 1017.62 1018.06 1018.50 1018.86 1019.08 1019.17 1019.12 1018.97 1018.78 1018.60 1018.46 1018.39 1018.39 1018.42 1018.46 1018.48 1018.43 1018.32 1018.16 1017.96 1017.76 1017.62 1017.55 1017.60 1017.77 1018.05 1018.44 1018.89 1019.38 1019.88 1020.36
1014.28 1014.97 1015.65 1016.22 1016.62 1016.84 1016.91 1016.90 1016.88 1016.94 1017.10 1017.38 1017.77 1018.20 1018.61 1018.95 1019.17 1019.26 1019.23 1019.12 1018.96 1018.82 1018.72 1018.69 1018.71 1018.78 1018.85 1018.90 1018.90 1018.84 1018.72 1018.57 1018.41 1018.28 1018.20 1018.21 1018.30 1018.49 1018.76 1019.09 1019.47 1019.87 1020.28
1013.95 1014.59 1015.23 1015.78 1016.21 1016.49 1016.66 1016.75 1016.84 1016.98 1017.21 1017.52 1017.91 1018.32 1018.70 1019.01 1019.22 1019.30 1019.29 1019.21 1019.11 1019.01 1018.97 1018.98 1019.04 1019.14 1019.24 1019.32 1019.36 1019.34 1019.27 1019.17 1019.05 1018.94 1018.87 1018.86 1018.91 1019.02 1019.20 1019.43 1019.70 1020.01 1020.33
1013.66 1014.22 1014.79 1015.31 1015.74 1016.06 1016.31 1016.51 1016.71 1016.94 1017.24 1017.59 1017.99 1018.38 1018.74 1019.02 1019.21 1019.31 1019.32 1019.28 1019.23 1019.20 1019.21 1019.26 1019.37 1019.49 1019.62 1019.72 1019.79 1019.80 1019.77 1019.70 1019.62 1019.55 1019.51 1019.50 1019.53 1019.61 1019.73 1019.89 1020.07 1020.29 1020.53
1013.43 1013.87 1014.34 1014.78 1015.18 1015.53 1015.84 1016.12 1016.42 1016.75 1017.12 1017.52 1017.93 1018.33 1018.67 1018.95 1019.15 1019.26 1019.31 1019.33 1019.35 1019.38 1019.45 1019.55 1019.69 1019.83 1019.97 1020.08 1020.15 1020.18 1020.17 1020.14 1020.10 1020.07 1020.06 1020.08 1020.12 1020.19 1020.29 1020.40 1020.53 1020.68 1020.85
1013.27 1013.56 1013.89 1014.22 1014.56 1014.88 1015.21 1015.56 1015.93 1016.34 1016.78 1017.23 1017.68 1018.10 1018.46 1018.76 1018.98 1019.14 1019.26 1019.35 1019.44 1019.54 1019.67 1019.82 1019.98 1020.14 1020.27 1020.38 1020.44 1020.47 1020.48 1020.47 1020.46 1020.47 1020.50 1020.56 1020.63 1020.72 1020.82 1020.91 1021.01 1021.11 1021.22
1013.18 1013.30 1013.46 1013.65 1013.88 1014.14 1014.46 1014.82 1015.24 1015.71 1016.21 1016.72 1017.21 1017.67 1018.08 1018.42 1018.70 1018.93 1019.13 1019.30 1019.47 1019.65 1019.84 1020.03 1020.21 1020.37 1020.50 1020.59 1020.64 1020.67 1020.68 1020.69 1020.72 1020.77 1020.84 1020.94 1021.05 1021.16 1021.27 1021.37 1021.44 1021.51 1021.57
1013.17 1013.11 1013.09 1013.11 1013.20 1013.37 1013.63 1013.98 1014.41 1014.90 1015.45 1016.00 1016.55 1017.06 1017.53 1017.94 1018.30 1018.62 1018.90 1019.17 1019.43 1019.69 1019.93 1020.16 1020.36 1020.52 1020.63 1020.71 1020.75 1020.78 1020.79 1020.82 1020.88 1020.97 1021.09 1021.22 1021.37 1021.51 1021.63 1021.73 1021.79 1021.84 1021.86
1013.25 1013.02 1012.82 1012.67 1012.61 1012.65 1012.82 1013.11 1013.52 1014.02 1014.58 1015.16 1015.75 1016.32 1016.86 1017.35 1017.79 1018.20 1018.58 1018.95 1019.29 1019.61 1019.90 1020.17 1020.38 1020.55 1020.66 1020.74 1020.78 1020.81 1020.84 1020.90 1020.99 1021.11 1021.27 1021.44 1021.61 1021.77 1021.90 1021.99 1022.05 1022.06 1022.06
1013.41 1013.05 1012.69 1012.38 1012.17 1012.08 1012.14 1012.35 1012.70 1013.17 1013.71 1014.31 1014.93 1015.54 1016.14 1016.70 1017.22 1017.72 1018.19 1018.63 1019.04 1019.42 1019.76 1020.05 1020.28 1020.46 1020.58 1020.67 1020.73 1020.78 1020.85 1020.94 1021.07 1021.23 1021.42 1021.62 1021.81 1021.97 1022.10 1022.18 1022.21 1022.21 1022.18
1013.63 1013.17 1012.69 1012.26 1011.92 1011.71 1011.66 1011.78 1012.05 1012.45 1012.96 1013.54 1014.17 1014.80 1015.44 1016.05 1016.64 1017.21 1017.74 1018.24 1018.71 1019.13 1019.50 1019.81 1020.06 1020.26 1020.41 1020.52 1020.62 1020.72 1020.83 1020.98 1021.15 1021.34 1021.56 1021.77 1021.96 1022.12 1022.24 1022.30 1022.31 1022.29 1022.24
1013.87 1013.36 1012.82 1012.30 1011.87 1011.56 1011.41 1011.43 1011.62 1011.95 1012.40 1012.94 1013.54 1014.17 1014.82 1015.46 1016.09 1016.70 1017.27 1017.81 1018.30 1018.74 1019.14 1019.47 1019.74 1019.97 1020.16 1020.32 1020.47 1020.62 1020.80 1020.99 1021.21 1021.44 1021.68 1021.90 1022.09 1022.23 1022.33 1022.37 1022.37 1022.33 1022.28
1014.08 1013.57 1013.00 1012.45 1011.97 1011.60 1011.37 1011.30 1011.40 1011.65 1012.03 1012.51 1013.06 1013.67 1014.30 1014.95 1015.58 1016.20 1016.78 1017.34 1017.84 1018.30 1018.70 1019.05 1019.35 1019.61 1019.85 1020.06 1020.28 1020.50 1020.73 1020.98 1021.25 1021.51 1021.76 1021.98 1022.16 1022.29 1022.36 1022.39 1022.38 1022.34 1022.30
1014.20 1013.72 1013.18 1012.63 1012.14 1011.74 1011.46 1011.33 1011.36 1011.53 1011.82 1012.23 1012.72 1013.28 1013.87 1014.49 1015.10 1015.71 1016.29 1016.83 1017.33 1017.79 1018.21 1018.58 1018.91 1019.21 1019.49 1019.77 1020.05 1020.33 1020.63 1020.93 1021.22 1021.50 1021.76 1021.97 1022.13 1022.25 1022.31 1022.33 1022.32 1022.30 1022.28
1014.17 1013.75 1013.27 1012.77 1012.30 1011.90 1011.60 1011.43 1011.39 1011.49 1011.71 1012.04 1012.46 1012.94 1013.48 1014.05 1014.62 1015.20 1015.75 1016.28 1016.78 1017.24 1017.66 1018.05 1018.42 1018.77 1019.11 1019.44 1019.78 1020.12 1020.46 1020.79 1021.11 1021.39 1021.64 1021.83 1021.98 1022.08 1022.13 1022.15 1022.16 1022.17 1022.19
1013.98 1013.63 1013.22 1012.78 1012.36 1011.99 1011.70 1011.50 1011.42 1011.46 1011.61 1011.85 1012.19 1012.60 1013.07 1013.57 1014.10 1014.63 1015.16 1015.67 1016.16 1016.62 1017.06 1017.49 1017.90 1018.30 1018.69 1019.08 1019.47 1019.85 1020.22 1020.57 1020.88 1021.15 1021.37 1021.55 1021.67 1021.75 1021.80 1021.83 1021.87 1021.92 1021.99
1013.62 1013.35 1013.01 1012.65 1012.30 1011.97 1011.70 1011.49 1011.38 1011.36 1011.44 1011.61 1011.87 1012.20 1012.59 1013.02 1013.49 1013.98 1014.48 1014.97 1015.46 1015.94 1016.42 1016.88 1017.34 1017.79 1018.23 1018.67 1019.10 1019.51 1019.89 1020.23 1020.53 1020.77 1020.96 1021.10 1021.20 1021.26 1021.32 1021.37 1021.44 1021.53 1021.67
Thickness
5821 5819 5815 5812 5806 5801 5796 5792 5789 5786 5784 5781 5777 5775 5773 5775 5774 5774 5772 5770 5769 5769 5767 5766 5766 5765 5763 5761 5761 5758 5756 5755 5755 5751 5748 5750 5752 5752 5751 5750 5748 5747 5746
5822 5820 5817 5814 5809 5803 5799 5795 5792 5789 5786 5784 5782 5779 5778 5777 5776 5775 5773 5771 5770 5770 5769 5766 5765 5764 5762 5760 5759 5758 5754 5753 5755 5749 5743 5739 5740 5744 5749 5747 5746 5745 5744
5826 5822 5819 5816 5813 5807 5803 5800 5796 5792 5789 5787 5784 5782 5779 5777 5776 5773 5772 5772 5771 5770 5768 5767 5766 5764 5763 5760 5759 5757 5754 5751 5753 5753 5745 5737 5732 5736 5740 5743 5742 5742 5740
5836 5830 5825 5820 5817 5814 5810 5805 5800 5796 5792 5790 5786 5781 5776 5773 5774 5774 5773 5773 5772 5770 5769 5767 5765 5764 5763 5761 5760 5759 5757 5753 5750 5751 5751 5748 5744 5735 5731 5735 5738 5738 5736
5845 5837 5832 5827 5824 5821 5815 5809 5804 5799 5796 5792 5788 5784 5780 5778 5778 5777 5774 5772 5772 5770 5769 5768 5765 5764 5762 5761 5760 5759 5757 5755 5752 5750 5749 5747 5745 5742 5733 5726 5729 5731 5732
5852 5845 5840 5834 5829 5826 5820 5814 5806 5801 5798 5794 5790 5786 5782 5779 5777 5775 5772 5771 5771 5770 5769 5767 5765 5763 5762 5760 5759 5758 5756 5754 5752 5751 5749 5746 5742 5739 5735 5728 5725 5723 5725
5856 5849 5842 5835 5831 5827 5822 5817 5809 5803 5800 5796 5792 5788 5785 5781 5778 5775 5773 5771 5769 5768 5767 5766 5764 5762 5761 5760 5758 5756 5754 5753 5751 5749 5747 5747 5745 5742 5738 5731 5725 5721 5720
5857 5853 5847 5841 5835 5830 5825 5819 5812 5806 5802 5797 5793 5790 5787 5783 5780 5777 5775 5772 5770 5769 5767 5765 5763 5761 5759 5758 5756 5754 5753 5751 5749 5748 5746 5744 5743 5741 5737 5731 5724 5717 5715
5861 5857 5852 5846 5840 5834 5828 5823 5815 5808 5804 5800 5795 5791 5787 5784 5781 5779 5776 5773 5771 5770 5767 5764 5761 5759 5757 5755 5753 5750 5749 5747 5746 5744 5743 5740 5739 5738 5736 5732 5727 5718 5710
5863 5858 5853 5849 5844 5839 5832 5826 5819 5811 5806 5802 5797 5793 5788 5785 5782 5778 5774 5772 5770 5768 5765 5762 5759 5757 5754 5752 5750 5747 5745 5743 5741 5740 5738 5736 5735 5734 5732 5729 5726 5722 5715
5862 5858 5855 5852 5847 5841 5834 5826 5820 5813 5807 5802 5797 5793 5789 5785 5781 5777 5774 5771 5769 5766 5763 5760 5757 5754 5751 5748 5746 5743 5741 5739 5737 5735 5734 5732 5731 5728 5727 5726 5723 5720 5715
5862 5860 5855 5851 5845 5838 5833 5827 5821 5814 5808 5803 5798 5793 5789 5785 5780 5776 5773 5771 5767 5764 5761 5758 5755 5751 5748 5746 5742 5739 5737 5734 5732 5730 5729 5727 5726 5724 5723 5721 5719 5716 5712
5859 5856 5851 5846 5841 5836 5832 5827 5821 5815 5810 5804 5798 5792 5788 5784 5779 5776 5773 5770 5766 5762 5759 5756 5752 5748 5745 5743 5740 5737 5734 5732 5729 5727 5725 5723 5721 5719 5718 5716 5714 5711 5709
5852 5849 5844 5841 5838 5834 5830 5826 5821 5817 5811 5804 5798 5791 5787 5783 5780 5776 5772 5768 5764 5760 5756 5753 5749 5746 5743 5740 5737 5735 5732 5730 5727 5725 5723 5720 5717 5715 5713 5711 5708 5705 5702
5846 5843 5839 5836 5833 5830 5826 5823 5819 5815 5810 5803 5796 5790 5787 5783 5778 5774 5770 5766 5762 5758 5754 5750 5746 5743 5740 5736 5734 5732 5730 5727 5724 5721 5719 5716 5713 5710 5708 5705 5702 5700 5696
5842 5840 5836 5833 5829 5826 5823 5819 5815 5812 5807 5801 5794 5790 5785 5780 5775 5771 5767 5763 5759 5755 5751 5747 5743 5740 5736 5732 5731 5728 5726 5723 5720 5716 5714 5711 5708 5705 5702 5699 5696 5694 5691
5840 5836 5833 5830 5827 5825 5822 5817 5813 5809 5803 5797 5792 5787 5782 5777 5773 5769 5764 5759 5755 5751 5747 5744 5739 5735 5731 5728 5726 5724 5722 5719 5715 5712 5709 5707 5703 5699 5696 5692 5690 5687 5685
5837 5834 5831 5828 5826 5824 5820 5816 5812 5806 5800 5794 5789 5785 5780 5775 5770 5765 5761 5756 5752 5748 5744 5740 5736 5732 5728 5724 5722 5719 5717 5714 5711 5708 5704 5700 5696 5693 5689 5687 5683 5680 5677
5837 5833 5831 5828 5824 5821 5817 5812 5807 5802 5796 5791 5786 5783 5778 5772 5767 5762 5757 5754 5749 5745 5741 5737 5733 5728 5724 5720 5717 5715 5713 5709 5706 5703 5699 5695 5690 5687 5684 5681 5677 5674 5671
5832 5829 5828 5824 5819 5816 5813 5807 5801 5797 5792 5788 5785 5781 5776 5770 5765 5760 5755 5751 5746 5742 5738 5734 5730 5726 5721 5716 5713 5710 5709 5705 5701 5697 5693 5689 5685 5681 5679 5676 5673 5668 5666
5825 5824 5821 5816 5813 5811 5807 5801 5796 5792 5790 5787 5782 5777 5772 5767 5762 5757 5752 5748 5743 5739 5735 5730 5727 5723 5719 5713 5710 5706 5704 5701 5697 5693 5689 5684 5680 5677 5673 5671 5668 5664 5661
5816 5815 5811 5807 5806 5805 5800 5794 5790 5790 5787 5782 5776 5772 5768 5764 5760 5753 5748 5744 5739 5734 5730 5726 5722 5719 5715 5711 5706 5702 5698 5696 5692 5689 5685 5680 5675 5671 5668 5665 5662 5659 5656
5807 5806 5803 5799 5798 5797 5794 5787 5786 5785 5781 5775 5770 5766 5762 5759 5755 5749 5744 5739 5735 5731 5727 5723 5718 5715 5712 5707 5702 5698 5694 5691 5687 5684 5680 5675 5670 5667 5663 5660 5657 5654 5651
5798 5797 5794 5790 5788 5789 5787 5784 5782 5779 5774 5768 5764 5760 5756 5752 5749 5746 5742 5737 5733 5729 5725 5721 5717 5713 5709 5704 5699 5694 5689 5685 5681 5678 5674 5670 5666 5662 5659 5655 5652 5649 5647
5789 5788 5786 5783 5782 5781 5779 5778 5775 5771 5766 5762 5758 5755 5751 5748 5743 5740 5737 5735 5731 5728 5723 5721 5717 5711 5706 5701 5696 5691 5687 5683 5678 5673 5669 5665 5662 5658 5655 5653 5649 5646 5642
5781 5779 5778 5777 5775 5774 5772 5771 5768 5764 5759 5754 5752 5749 5746 5742 5739 5735 5730 5726 5725 5722 5719 5715 5712 5709 5704 5697 5691 5686 5682 5678 5673 5669 5666 5663 5659 5656 5653 5649 5645 5642 5638